SCP
0 0 0 0 0 0 0 0 0 0 0 0 0 0 0 0 0 0 0 0 0 0 0 0 0 0 0 0 0 0 0 0 0 0 0 0 0 0 0 0 0 0 0 0
0 0 0 0 0 0 0 0 0 0 0 0 0 0 0 0 0 0 0 0 0 0 0 0 0 0 0 0 0 0 0 0 0 0 0 0 0 0 0 0 0 0 0 0
-0 0 0 0 0 0 0 0 0 0 0 0 0 0 0 0 0 0 0 0 0 0 0 0 0 0 0 0 0 0 0 0 0 0 0 0 0 0 0 0 0 0 0 0
-0 0 0 0 0 0 0 0 0 0 0 0 0 0 0 0 0 0 0 0 0 0 0 0 0 0 0 0 0 0 0 0 0 0 0 0 0 0 0 0 0 0 0 0
-0 -0 -0 0 0 0 0 0 0 0 0 0 0 0 0 0 0 0 0 0 0 0 0 0 0 0 0 0 0 0 0 0 0 0 0 0 0 0 0 0 0 0 0 0
0 -0 -0 0 0 0 0 0 0 0 0 0 0 0 0 0 0 0 0 0 0 0 0 0 0 0 0 0 0 0 0 0 0 0 0 0 0 0 0 0 0 0 0 0
0 0 0 -0 0 0 0 0 0 0 0 0 0 0 0 0 0 0 0 0 0 0 0 0 0 0 0 0 0 0 0 0 0 0 0 0 0 0 0 0 0 0 0 0
0 0 0 0 0 0 0 0 0 0 0 0 0 0 0 0 0 0 0 0 0 0 0 0 0 0 0 0 0 0 0 0 0 0 0 0 0 0 0 0 0 0 0 0
0 0 0 0 -0 0 0 0 0 0 0 0 0 0 0 0 0 0 0 0 0 0 0 0 0 0 0 0 0 0 0 0 0 0 0 0 0 0 0 0 0 0 0 0
0 0 0 0 -0 0 0 0 0 0 0 0 0 0 0 0 0 0 0 0 0 0 0 0 0 0 0 0 0 0 0 0 0 0 0 0 0 0 0 0 0 0 0 0
0 0 0 0 0 0 0 0 0 0 0 0 0 0 0 0 0 0 0 0 0 0 0 0 0 0 0 0 0 0 0 0 0 0 0 0 0 0 0 0 0 0 0 0
0 -0 0 1 0 0 0 0 0 0 0 0 0 0 0 0 0 0 0 0 0 0 0 0 0 0 0 0 0 0 0 0 0 0 0 0 0 0 0 0 0 0 0 0
0 -0 0 0 0 0 0 0 0 0 0 0 0 0 0 0 0 0 0 0 0 0 0 0 0 0 0 0 0 0 0 0 0 0 0 0 0 0 0 0 0 0 0 0
0 0 0 0 0 0 0 0 0 0 0 0 0 0 0 0 0 0 0 0 0 0 0 0 0 0 0 0 0 0 0 0 0 0 0 0 0 0 0 0 0 0 0 0
0 0 0 0 0 0 0 0 0 0 0 0 0 0 0 0 0 0 0 0 0 0 0 0 0 0 0 0 0 0 0 0 0 0 0 0 0 0 0 0 0 0 0 0
0 -0 0 0 0 0 0 0 0 0 0 0 0 0 0 0 0 0 0 0 0 0 0 0 0 0 0 0 0 0 0 0 0 0 0 0 0 0 0 0 0 0 0 0
0 0 0 0 0 0 0 0 0 0 0 0 0 0 0 0 0 0 0 0 0 0 0 0 0 0 0 0 0 0 0 0 0 0 0 0 0 0 0 0 0 0 0 0
-0 0 0 0 0 0 0 0 0 0 0 0 0 0 0 0 0 0 0 0 0 0 0 0 0 0 0 0 0 0 0 0 0 0 0 0 0 0 0 0 0 0 0 0
0 0 0 0 0 0 0 0 0 0 0 0 0 0 0 0 0 0 0 0 0 0 0 0 0 0 0 0 0 0 0 0 0 0 0 0 0 0 0 0 0 0 0 0
0 0 0 0 0 0 0 0 0 0 0 0 0 0 0 0 0 0 0 0 0 0 0 0 0 0 0 0 0 0 0 0 0 0 0 0 0 0 0 0 0 0 0 0
0 0 0 0 0 0 0 0 0 0 0 0 0 0 0 0 0 0 0 0 0 0 0 0 0 0 0 0 0 0 0 0 0 0 0 0 0 0 0 0 0 0 0 0
0 0 0 0 0 0 0 0 0 0 0 0 0 0 0 0 0 0 0 0 0 0 0 0 0 0 0 0 0 0 0 0 0 0 0 0 0 0 0 0 0 0 0 0
0 0 0 0 0 0 0 0 0 0 0 0 0 0 0 0 0 0 0 0 0 0 0 0 0 0 0 0 0 0 0 0 0 0 0 0 0 0 0 0 0 0 0 0
0 0 0 0 0 0 0 0 0 0 0 0 0 0 0 0 0 0 0 0 0 0 0 0 0 0 0 0 0 0 0 0 0 0 0 0 0 0 0 0 0 0 0 0
0 0 0 0 0 0 0 0 0 0 0 0 0 0 0 0 0 0 0 0 0 0 0 0 0 0 0 0 0 0 0 0 0 0 0 0 0 0 0 0 0 0 0 0
0 0 0 0 0 0 0 0 0 0 0 0 0 0 0 0 0 0 0 0 0 0 0 0 0 0 0 0 0 0 0 0 0 0 0 0 0 0 0 0 0 0 0 0
0 0 0 0 0 0 0 0 0 0 0 0 0 0 0 0 0 0 0 0 0 0 0 0 0 0 0 0 0 0 0 0 0 0 0 0 0 0 0 0 0 0 0 0
Wind_Speed_500mb
56 125 139 134 132 123 103 68 10 60 72 19 10 19 13 16 17 10 7 10 9 16 19 13 18 25 3 23 29 14 9 9 9 8 3 4 4 8 16 8 11 3 4 13
67 49 149 144 146 141 115 68 21 68 80 21 10 2 13 16 14 15 15 10 5 6 16 9 8 11 4 13 17 14 15 5 7 3 3 3 12 13 6 7 2 17 11 9
103 75 61 157 158 151 120 56 12 17 49 30 26 21 23 16 12 14 15 12 12 11 7 5 12 9 3 8 10 4 14 5 9 15 7 9 13 21 27 12 10 12 21 8
90 98 89 157 166 162 132 53 15 39 20 31 17 37 35 45 16 5 20 4 15 21 11 7 9 7 8 4 9 8 4 8 6 3 4 6 7 16 36 32 29 23 14 28
70 93 83 66 177 171 119 40 23 30 18 60 36 40 40 57 19 25 19 13 33 12 21 19 19 17 12 11 9 10 7 6 3 6 8 7 11 24 33 40 30 27 21 24
85 68 88 96 163 187 78 67 78 66 44 35 40 48 42 43 38 18 17 36 20 25 14 25 25 8 26 27 21 16 14 13 7 12 3 6 17 43 39 22 27 29 29 35
91 91 80 116 104 195 117 100 74 26 17 36 53 58 50 49 60 35 15 47 24 25 52 61 43 43 40 24 14 7 14 10 4 5 3 18 4 3 34 41 34 44 13 9
96 98 82 73 107 143 139 109 90 47 24 31 32 40 58 37 47 16 17 17 36 80 38 10 11 8 4 3 2 6 6 15 9 9 16 26 34 12 19 26 36 44 46 28
99 104 114 72 110 128 166 116 124 79 36 37 51 44 71 23 26 11 8 24 83 62 7 7 19 17 12 12 4 4 5 4 16 8 12 17 2 6 18 17 23 28 67 48
108 109 117 87 105 139 178 117 137 96 39 37 81 44 61 47 38 16 18 39 25 21 8 8 12 14 6 16 21 15 12 8 32 23 18 16 9 25 32 15 11 15 60 53
111 110 122 99 106 123 147 142 136 132 50 43 81 64 75 53 71 22 45 22 10 9 12 14 12 12 18 9 15 19 25 26 15 18 20 37 33 17 19 6 6 18 44 62
110 108 124 89 106 123 133 116 125 112 64 35 59 65 77 103 115 73 81 13 39 23 12 9 9 7 8 12 13 14 15 16 17 29 18 5 86 21 47 13 14 29 45 51
99 108 107 90 96 113 156 115 130 92 38 29 34 44 55 65 79 93 34 26 45 38 35 14 7 11 12 15 14 11 12 11 8 8 16 22 58 62 37 32 19 32 43 55
92 105 90 107 91 92 137 107 122 100 40 11 7 36 48 65 70 77 60 82 63 68 45 12 7 7 18 9 4 17 10 32 17 11 11 6 42 78 58 51 36 44 47 52
80 80 80 105 82 136 132 102 113 94 53 9 14 32 24 48 70 76 59 69 79 56 13 6 6 9 9 1 4 11 21 16 20 20 33 41 23 78 78 62 58 63 58 59
66 71 76 89 132 146 115 38 69 83 53 25 8 14 19 33 45 43 53 74 52 28 15 7 8 10 7 10 9 8 66 57 55 15 28 60 33 25 66 84 73 69 63 57
60 69 53 142 160 148 105 44 79 88 62 24 9 7 19 50 55 34 51 45 28 16 13 7 12 9 12 2 8 8 59 67 67 54 27 22 36 22 40 73 80 66 66 58
44 37 99 120 125 98 54 43 112 82 41 24 10 6 10 15 14 11 15 13 13 10 12 11 6 13 4 9 13 33 21 46 51 57 42 26 23 43 33 56 77 72 73 70
48 81 116 108 80 31 49 96 85 71 24 10 7 14 10 21 9 15 11 10 6 6 4 5 13 7 12 12 18 26 46 47 30 53 54 42 30 36 42 58 75 78 80 77
76 63 18 17 27 103 97 38 12 12 16 12 7 20 10 29 13 6 9 8 7 6 3 17 7 8 14 11 14 16 23 44 43 47 41 45 41 45 53 59 66 81 88 79
38 16 17 83 58 23 13 7 7 7 8 10 10 12 19 12 6 7 7 6 6 8 7 8 6 8 6 11 29 24 19 27 41 45 42 51 58 57 57 58 64 73 73 72
23 59 44 22 15 16 12 5 4 11 7 7 10 17 19 20 14 8 5 6 4 9 17 7 7 3 1 6 11 27 39 30 35 43 37 25 35 41 46 51 56 60 60 63
64 19 14 16 15 19 9 6 6 9 5 13 21 14 18 14 14 7 5 6 5 21 6 9 5 6 8 14 9 8 21 35 33 32 35 29 28 35 38 48 51 50 54 58
22 10 15 10 10 9 6 5 4 2 6 40 23 10 9 13 6 6 10 3 7 5 7 11 4 11 15 12 10 1 10 23 33 32 30 28 28 31 36 38 41 49 56 58
16 14 13 12 2 8 7 5 8 12 19 22 20 20 14 6 10 5 11 7 10 13 4 5 17 23 19 13 7 8 14 21 27 29 27 26 27 29 34 39 44 48 51 51
18 26 9 7 6 7 7 13 17 24 11 8 11 9 9 7 9 8 6 19 10 4 4 11 15 18 18 16 15 18 18 20 28 33 33 33 32 32 38 47 51 50 45 41
17 12 30 17 11 6 12 21 21 18 9 6 7 9 6 7 7 6 9 5 4 7 10 13 14 16 21 23 22 26 27 26 29 31 33 35 39 38 37 39 42 40 39 37
Wind_Direction_500mb
266 217 212 213 213 200 193 175 181 174 175 166 189 203 184 168 157 170 142 120 110 162 164 158 198 199 220 160 153 172 195 119 162 183 56 325 295 220 183 212 194 222 330 265
248 200 212 210 209 206 175 167 153 173 175 199 193 194 195 189 143 178 159 143 133 146 163 162 178 179 22 163 167 159 187 164 118 201 207 181 224 201 173 88 95 193 186 246
248 234 215 210 210 209 184 160 131 169 207 235 181 166 191 184 180 157 149 126 117 122 115 14 156 144 141 178 165 126 137 170 201 231 125 132 196 197 190 190 192 178 227 255
249 250 237 200 205 210 188 180 177 169 187 207 183 183 170 190 159 208 165 136 210 158 122 110 159 131 133 90 154 113 131 230 189 218 223 225 229 198 194 204 210 209 223 219
254 243 247 228 205 208 192 170 150 171 151 174 178 190 200 190 175 151 208 201 188 176 157 184 178 142 187 177 155 170 151 188 152 258 224 226 249 231 213 218 221 255 250 264
257 245 239 224 201 199 196 189 193 169 166 170 180 200 185 196 175 205 199 180 149 191 167 116 122 69 138 143 152 164 157 141 130 260 36 290 261 217 211 200 206 212 217 233
248 253 234 230 232 204 201 197 181 156 179 176 202 185 187 189 192 184 168 173 161 139 134 110 95 67 70 85 63 98 136 135 155 274 205 246 284 37 218 211 212 215 248 201
247 249 242 246 226 214 207 200 186 189 191 192 178 202 188 173 184 150 144 165 185 151 134 93 83 22 39 116 234 190 156 162 184 224 218 298 274 197 176 189 240 222 225 216
248 248 247 243 235 229 217 203 198 195 193 202 179 179 177 167 166 113 97 136 151 155 117 125 183 201 145 207 169 60 162 306 205 148 230 241 67 50 120 125 268 207 207 206
247 246 250 248 235 227 215 214 202 193 199 194 171 182 181 167 160 131 129 144 171 171 141 144 184 203 144 180 178 164 157 188 215 206 239 271 190 160 145 165 258 194 192 181
247 245 251 248 236 226 220 213 203 192 194 177 189 181 170 168 169 157 153 121 189 159 161 168 179 187 204 175 158 172 169 171 190 206 221 254 151 137 195 187 174 179 170 180
248 248 249 249 237 222 223 211 203 195 192 172 186 193 189 189 176 160 170 169 151 153 144 178 137 167 164 162 210 189 203 194 175 192 209 145 178 204 200 184 188 179 180 183
242 244 244 239 235 222 210 199 181 182 156 113 154 176 174 190 192 189 146 163 178 168 165 146 156 189 157 176 225 151 226 181 194 151 192 213 203 214 216 207 206 194 190 183
238 247 241 226 213 204 188 185 180 180 143 110 102 153 164 183 184 187 199 185 170 165 160 119 166 188 201 198 142 204 166 151 163 271 258 287 233 219 223 209 209 193 182 187
241 239 247 231 202 192 186 183 179 182 172 125 119 115 127 168 180 183 180 176 159 150 139 133 170 124 145 85 249 212 185 163 183 216 199 207 217 225 216 206 203 193 182 183
230 246 237 206 192 171 163 143 173 179 161 109 106 89 120 155 170 162 156 160 148 143 133 133 161 183 192 192 221 211 194 204 206 223 213 214 222 213 218 211 205 197 192 196
228 232 250 165 165 166 163 168 166 157 136 98 105 89 128 121 128 121 131 133 133 121 112 114 144 160 189 217 218 234 207 214 214 216 199 200 216 217 214 211 207 199 197 195
220 243 160 159 155 153 148 165 173 158 116 95 108 90 113 137 132 111 128 110 110 65 115 130 138 131 152 251 234 219 213 217 219 216 212 223 226 214 207 207 202 197 196 196
172 145 129 125 134 123 128 146 146 156 110 109 112 139 142 170 129 121 103 115 85 104 104 156 160 162 220 219 203 215 212 205 214 208 215 219 216 209 206 200 195 199 199 199
152 134 111 76 114 131 128 129 120 88 75 87 97 123 130 158 164 110 115 86 131 135 126 143 202 247 234 171 193 221 237 230 226 191 204 207 205 204 204 205 204 206 207 201
130 50 57 123 124 98 63 70 63 106 81 72 91 101 124 136 100 117 80 129 150 147 166 180 225 259 179 222 220 218 223 220 226 229 239 234 228 214 208 207 206 208 209 206
118 122 111 74 56 58 74 59 78 56 117 93 106 128 111 108 116 95 121 107 157 166 137 162 240 186 33 335 237 230 227 223 214 223 228 231 225 226 220 217 212 208 205 204
105 80 59 28 4 49 42 91 62 94 132 144 158 132 118 102 91 81 109 108 118 133 171 217 231 104 340 335 313 238 222 218 216 216 222 218 211 208 210 213 207 202 196 194
55 50 48 48 32 58 43 51 82 80 154 135 121 91 106 107 86 113 92 67 154 168 208 229 76 360 338 345 342 265 175 189 201 205 203 205 202 198 198 199 201 196 191 188
65 41 56 58 18 45 47 101 85 39 94 117 111 78 83 85 103 75 121 141 204 209 226 47 352 348 358 19 53 114 138 154 164 169 175 179 184 187 188 183 183 184 186 187
60 47 93 62 77 32 14 28 58 36 66 97 76 94 82 83 112 141 181 158 186 109 19 347 355 29 52 66 84 102 119 138 143 145 147 149 149 156 166 168 171 176 183 192
44 36 31 52 73 64 58 30 14 31 21 55 36 69 64 123 106 93 3 57 54 6 26 44 47 61 79 85 95 103 108 115 119 121 125 133 137 142 153 164 171 180 188 193
Wind_Speed_850mb
56 125 139 134 132 123 103 68 10 60 72 19 10 19 13 16 17 10 7 10 9 16 19 13 18 25 3 23 29 14 9 9 9 8 3 4 4 8 16 8 11 3 4 13
67 49 149 144 146 141 115 68 21 68 80 21 10 2 13 16 14 15 15 10 5 6 16 9 8 11 4 13 17 14 15 5 7 3 3 3 12 13 6 7 2 17 11 9
103 75 61 157 158 151 120 56 12 17 49 30 26 21 23 16 12 14 15 12 12 11 7 5 12 9 3 8 10 4 14 5 9 15 7 9 13 21 27 12 10 12 21 8
90 98 89 157 166 162 132 53 15 39 20 31 17 37 35 45 16 5 20 4 15 21 11 7 9 7 8 4 9 8 4 8 6 3 4 6 7 16 36 32 29 23 14 28
70 93 83 66 177 171 119 40 23 30 18 60 36 40 40 57 19 25 19 13 33 12 21 19 19 17 12 11 9 10 7 6 3 6 8 7 11 24 33 40 30 27 21 24
85 68 88 96 163 187 78 67 78 66 44 35 40 48 42 43 38 18 17 36 20 25 14 25 25 8 26 27 21 16 14 13 7 12 3 6 17 43 39 22 27 29 29 35
91 91 80 116 104 195 117 100 74 26 17 36 53 58 50 49 60 35 15 47 24 25 52 61 43 43 40 24 14 7 14 10 4 5 3 18 4 3 34 41 34 44 13 9
96 98 82 73 107 143 139 109 90 47 24 31 32 40 58 37 47 16 17 17 36 80 38 10 11 8 4 3 2 6 6 15 9 9 16 26 34 12 19 26 36 44 46 28
99 104 114 72 110 128 166 116 124 79 36 37 51 44 71 23 26 11 8 24 83 62 7 7 19 17 12 12 4 4 5 4 16 8 12 17 2 6 18 17 23 28 67 48
108 109 117 87 105 139 178 117 137 96 39 37 81 44 61 47 38 16 18 39 25 21 8 8 12 14 6 16 21 15 12 8 32 23 18 16 9 25 32 15 11 15 60 53
111 110 122 99 106 123 147 142 136 132 50 43 81 64 75 53 71 22 45 22 10 9 12 14 12 12 18 9 15 19 25 26 15 18 20 37 33 17 19 6 6 18 44 62
110 108 124 89 106 123 133 116 125 112 64 35 59 65 77 103 115 73 81 13 39 23 12 9 9 7 8 12 13 14 15 16 17 29 18 5 86 21 47 13 14 29 45 51
99 108 107 90 96 113 156 115 130 92 38 29 34 44 55 65 79 93 34 26 45 38 35 14 7 11 12 15 14 11 12 11 8 8 16 22 58 62 37 32 19 32 43 55
92 105 90 107 91 92 137 107 122 100 40 11 7 36 48 65 70 77 60 82 63 68 45 12 7 7 18 9 4 17 10 32 17 11 11 6 42 78 58 51 36 44 47 52
80 80 80 105 82 136 132 102 113 94 53 9 14 32 24 48 70 76 59 69 79 56 13 6 6 9 9 1 4 11 21 16 20 20 33 41 23 78 78 62 58 63 58 59
66 71 76 89 132 146 115 38 69 83 53 25 8 14 19 33 45 43 53 74 52 28 15 7 8 10 7 10 9 8 66 57 55 15 28 60 33 25 66 84 73 69 63 57
60 69 53 142 160 148 105 44 79 88 62 24 9 7 19 50 55 34 51 45 28 16 13 7 12 9 12 2 8 8 59 67 67 54 27 22 36 22 40 73 80 66 66 58
44 37 99 120 125 98 54 43 112 82 41 24 10 6 10 15 14 11 15 13 13 10 12 11 6 13 4 9 13 33 21 46 51 57 42 26 23 43 33 56 77 72 73 70
48 81 116 108 80 31 49 96 85 71 24 10 7 14 10 21 9 15 11 10 6 6 4 5 13 7 12 12 18 26 46 47 30 53 54 42 30 36 42 58 75 78 80 77
76 63 18 17 27 103 97 38 12 12 16 12 7 20 10 29 13 6 9 8 7 6 3 17 7 8 14 11 14 16 23 44 43 47 41 45 41 45 53 59 66 81 88 79
38 16 17 83 58 23 13 7 7 7 8 10 10 12 19 12 6 7 7 6 6 8 7 8 6 8 6 11 29 24 19 27 41 45 42 51 58 57 57 58 64 73 73 72
23 59 44 22 15 16 12 5 4 11 7 7 10 17 19 20 14 8 5 6 4 9 17 7 7 3 1 6 11 27 39 30 35 43 37 25 35 41 46 51 56 60 60 63
64 19 14 16 15 19 9 6 6 9 5 13 21 14 18 14 14 7 5 6 5 21 6 9 5 6 8 14 9 8 21 35 33 32 35 29 28 35 38 48 51 50 54 58
22 10 15 10 10 9 6 5 4 2 6 40 23 10 9 13 6 6 10 3 7 5 7 11 4 11 15 12 10 1 10 23 33 32 30 28 28 31 36 38 41 49 56 58
16 14 13 12 2 8 7 5 8 12 19 22 20 20 14 6 10 5 11 7 10 13 4 5 17 23 19 13 7 8 14 21 27 29 27 26 27 29 34 39 44 48 51 51
18 26 9 7 6 7 7 13 17 24 11 8 11 9 9 7 9 8 6 19 10 4 4 11 15 18 18 16 15 18 18 20 28 33 33 33 32 32 38 47 51 50 45 41
17 12 30 17 11 6 12 21 21 18 9 6 7 9 6 7 7 6 9 5 4 7 10 13 14 16 21 23 22 26 27 26 29 31 33 35 39 38 37 39 42 40 39 37
Wind_Direction_850mb
266 217 212 213 213 200 193 175 181 174 175 166 189 203 184 168 157 170 142 120 110 162 164 158 198 199 220 160 153 172 195 119 162 183 56 325 295 220 183 212 194 222 330 265
248 200 212 210 209 206 175 167 153 173 175 199 193 194 195 189 143 178 159 143 133 146 163 162 178 179 22 163 167 159 187 164 118 201 207 181 224 201 173 88 95 193 186 246
248 234 215 210 210 209 184 160 131 169 207 235 181 166 191 184 180 157 149 126 117 122 115 14 156 144 141 178 165 126 137 170 201 231 125 132 196 197 190 190 192 178 227 255
249 250 237 200 205 210 188 180 177 169 187 207 183 183 170 190 159 208 165 136 210 158 122 110 159 131 133 90 154 113 131 230 189 218 223 225 229 198 194 204 210 209 223 219
254 243 247 228 205 208 192 170 150 171 151 174 178 190 200 190 175 151 208 201 188 176 157 184 178 142 187 177 155 170 151 188 152 258 224 226 249 231 213 218 221 255 250 264
257 245 239 224 201 199 196 189 193 169 166 170 180 200 185 196 175 205 199 180 149 191 167 116 122 69 138 143 152 164 157 141 130 260 36 290 261 217 211 200 206 212 217 233
248 253 234 230 232 204 201 197 181 156 179 176 202 185 187 189 192 184 168 173 161 139 134 110 95 67 70 85 63 98 136 135 155 274 205 246 284 37 218 211 212 215 248 201
247 249 242 246 226 214 207 200 186 189 191 192 178 202 188 173 184 150 144 165 185 151 134 93 83 22 39 116 234 190 156 162 184 224 218 298 274 197 176 189 240 222 225 216
248 248 247 243 235 229 217 203 198 195 193 202 179 179 177 167 166 113 97 136 151 155 117 125 183 201 145 207 169 60 162 306 205 148 230 241 67 50 120 125 268 207 207 206
247 246 250 248 235 227 215 214 202 193 199 194 171 182 181 167 160 131 129 144 171 171 141 144 184 203 144 180 178 164 157 188 215 206 239 271 190 160 145 165 258 194 192 181
247 245 251 248 236 226 220 213 203 192 194 177 189 181 170 168 169 157 153 121 189 159 161 168 179 187 204 175 158 172 169 171 190 206 221 254 151 137 195 187 174 179 170 180
248 248 249 249 237 222 223 211 203 195 192 172 186 193 189 189 176 160 170 169 151 153 144 178 137 167 164 162 210 189 203 194 175 192 209 145 178 204 200 184 188 179 180 183
242 244 244 239 235 222 210 199 181 182 156 113 154 176 174 190 192 189 146 163 178 168 165 146 156 189 157 176 225 151 226 181 194 151 192 213 203 214 216 207 206 194 190 183
238 247 241 226 213 204 188 185 180 180 143 110 102 153 164 183 184 187 199 185 170 165 160 119 166 188 201 198 142 204 166 151 163 271 258 287 233 219 223 209 209 193 182 187
241 239 247 231 202 192 186 183 179 182 172 125 119 115 127 168 180 183 180 176 159 150 139 133 170 124 145 85 249 212 185 163 183 216 199 207 217 225 216 206 203 193 182 183
230 246 237 206 192 171 163 143 173 179 161 109 106 89 120 155 170 162 156 160 148 143 133 133 161 183 192 192 221 211 194 204 206 223 213 214 222 213 218 211 205 197 192 196
228 232 250 165 165 166 163 168 166 157 136 98 105 89 128 121 128 121 131 133 133 121 112 114 144 160 189 217 218 234 207 214 214 216 199 200 216 217 214 211 207 199 197 195
220 243 160 159 155 153 148 165 173 158 116 95 108 90 113 137 132 111 128 110 110 65 115 130 138 131 152 251 234 219 213 217 219 216 212 223 226 214 207 207 202 197 196 196
172 145 129 125 134 123 128 146 146 156 110 109 112 139 142 170 129 121 103 115 85 104 104 156 160 162 220 219 203 215 212 205 214 208 215 219 216 209 206 200 195 199 199 199
152 134 111 76 114 131 128 129 120 88 75 87 97 123 130 158 164 110 115 86 131 135 126 143 202 247 234 171 193 221 237 230 226 191 204 207 205 204 204 205 204 206 207 201
130 50 57 123 124 98 63 70 63 106 81 72 91 101 124 136 100 117 80 129 150 147 166 180 225 259 179 222 220 218 223 220 226 229 239 234 228 214 208 207 206 208 209 206
118 122 111 74 56 58 74 59 78 56 117 93 106 128 111 108 116 95 121 107 157 166 137 162 240 186 33 335 237 230 227 223 214 223 228 231 225 226 220 217 212 208 205 204
105 80 59 28 4 49 42 91 62 94 132 144 158 132 118 102 91 81 109 108 118 133 171 217 231 104 340 335 313 238 222 218 216 216 222 218 211 208 210 213 207 202 196 194
55 50 48 48 32 58 43 51 82 80 154 135 121 91 106 107 86 113 92 67 154 168 208 229 76 360 338 345 342 265 175 189 201 205 203 205 202 198 198 199 201 196 191 188
65 41 56 58 18 45 47 101 85 39 94 117 111 78 83 85 103 75 121 141 204 209 226 47 352 348 358 19 53 114 138 154 164 169 175 179 184 187 188 183 183 184 186 187
60 47 93 62 77 32 14 28 58 36 66 97 76 94 82 83 112 141 181 158 186 109 19 347 355 29 52 66 84 102 119 138 143 145 147 149 149 156 166 168 171 176 183 192
44 36 31 52 73 64 58 30 14 31 21 55 36 69 64 123 106 93 3 57 54 6 26 44 47 61 79 85 95 103 108 115 119 121 125 133 137 142 153 164 171 180 188 193